sat.trackr.live / text

‹ back to catalog

QUETZSAT 1

NORAD 37826 · 2011-054A

PAYLOAD ACTIVE UNKNOWN

§ Identity

Operator
Country
MEX
Launch date
2011-09-29
Launch site
TYMSC
Launch vehicle
Mass (kg)
RCS (m²)
219.48

Purposes: comms

External: N2YO · Heavens-Above · Gunter

§ Orbital elements

Epoch: 2026-05-25T03:22:40.673856Z

Period
1,436.09 min
Inclination
0.0575°
Eccentricity
0.0002718
Mean motion
1.00272375 rev/d
Perigee alt
35,775.0 km
Apogee alt
35,797.9 km
Semi-major
42,164.6 km
B*
0.0000e+0
RAAN
80.3016°
Arg perigee
338.7193°
Mean anomaly
157.3780°
Rev number
4,964

§ Raw data

QUETZSAT 11 37826U 11054A   26145.14074854 -.00000244  00000+0  00000+0 0  99972 37826   0.0575  80.3016 0002718 338.7193 157.3780  1.00272375 49646

JSON: /api/v1/satellites/37826 · /tle

For live sub-satellite position, see the globe view (requires WebGL).

§ Visibility from observer

Set your observer location to see the next 7 days of passes ≥ 10°. The values pass through the URL so the page stays shareable.

No JS? Fill the form by hand. The geolocation button needs JavaScript.